This is the latest recevied weather packets stored in our database for station/object OE3UKW. If no packets are shown the sender has not sent any weather packets the latest 10 day(s).
| Time | Temp. | Humidity | Pressure | Rain* | Wind** | Luminosity | Snow |
|---|---|---|---|---|---|---|---|
| 1777655472 | 20.56° C | 24% | 1025.7 hPa | 0 mm | - | 30 W/m² | - |
| 1777654872 | 20.56° C | 24% | 1025.6 hPa | 0 mm | - | 36 W/m² | - |
| 1777654272 | 20.56° C | 24% | 1025.6 hPa | 0 mm | - | 47 W/m² | - |
| 1777653672 | 21.11° C | 23% | 1025.6 hPa | 0 mm | - | 46 W/m² | - |
| 1777653072 | 21.11° C | 24% | 1025.6 hPa | 0 mm | - | 213 W/m² | - |
| 1777652472 | 21.11° C | 24% | 1025.8 hPa | 0 mm | - | 257 W/m² | - |
| 1777651872 | 21.11° C | 25% | 1025.8 hPa | 0 mm | - | 270 W/m² | - |
| 1777651272 | 21.11° C | 25% | 1025.8 hPa | 0 mm | - | 305 W/m² | - |
| 1777650672 | 21.11° C | 25% | 1025.8 hPa | 0 mm | - | 76 W/m² | - |
| 1777650072 | 21.11° C | 25% | 1026 hPa | 0 mm | - | 300 W/m² | - |
| 1777649472 | 21.67° C | 24% | 1026.1 hPa | 0 mm | - | 413 W/m² | - |
| 1777648871 | 21.67° C | 24% | 1026.2 hPa | 0 mm | - | 120 W/m² | - |
| 1777648272 | 21.67° C | 26% | 1026.4 hPa | 0 mm | - | 459 W/m² | - |
| 1777647672 | 21.67° C | 24% | 1026.4 hPa | 0 mm | - | 369 W/m² | - |
| 1777647072 | 22.22° C | 24% | 1026.4 hPa | 0 mm | - | 624 W/m² | - |
| 1777646472 | 22.22° C | 24% | 1026.4 hPa | 0 mm | - | 650 W/m² | - |
| 1777645872 | 22.22° C | 26% | 1026.4 hPa | 0 mm | - | 630 W/m² | - |
| 1777645272 | 21.67° C | 25% | 1026.5 hPa | 0 mm | - | 640 W/m² | - |
| 1777644671 | 21.67° C | 25% | 1026.7 hPa | 0 mm | - | 637 W/m² | - |
| 1777644071 | 21.11° C | 25% | 1026.8 hPa | 0 mm | - | 646 W/m² | - |
| 1777643471 | 21.11° C | 25% | 1026.8 hPa | 0 mm | - | 228 W/m² | - |
| 1777642871 | 21.67° C | 24% | 1026.9 hPa | 0 mm | - | 729 W/m² | - |
| 1777642271 | 21.67° C | 28% | 1027.1 hPa | 0 mm | - | 803 W/m² | - |
| 1777641671 | 21.67° C | 26% | 1027.1 hPa | 0 mm | - | 264 W/m² | - |
| 1777641071 | 21.67° C | 26% | 1027.2 hPa | 0 mm | - | 800 W/m² | - |
* Rain latest hour (hover to see other rain measurements)
** Current wind speed in m/s (hover to see current wind gust speed)